Belize, Belize

5:00 PM CST on December 12, 2017 (GMT -0600)
Philip S W Goldson International

Weather History for MZBZ - May, 2012

Change the Weather History Date:

Monday, May 7, 2012

  Actual Average Record
Temperature  
Mean Temperature 84 °F -  
Max Temperature 89 °F 90 °F 91 °F (2003)
Min Temperature 78 °F 76 °F 69 °F (2016)
Cooling Degree Days 18    
Growing Degree Days 34 (Base 50)    
Moisture  
Dew Point 76 °F    
Average Humidity 75    
Maximum Humidity 94    
Minimum Humidity 57    
Precipitation  
Precipitation 0.00 in 0.19 in - ()
Sea Level Pressure  
Sea Level Pressure 29.84 in    
Wind  
Wind Speed 5 mph ()    
Max Wind Speed 10 mph    
Max Gust Speed -    
Visibility 8.1 miles    
Events      
Averages and records for this station are not official NWS values.
T = Trace of Precipitation, MM = Missing Value Source: Averaged Metar Reports

Daily Weather History Graph

Daily Weather History Graph

Search for Another Location

Airport or City:

Trip Planner

Search our weather history database for the weather conditions in past years. The results will help you decide how hot, cold, wet, or windy it might be!

Date:

Astronomy

May. 07, 2012 Rise Set
Actual Time 5:23 AM CST 6:15 PM CST
Civil Twilight 5:00 AM CST 6:38 PM CST
Nautical Twilight 4:33 AM CST 7:05 PM CST
Astronomical Twilight 4:06 AM CST 7:33 PM CST
Moon 8:14 PM CST (5/7) 6:41 AM CST (5/7)
Length of Visible Light 13h 37m
Length of Day
12h 51m
Waning Gibbous, 96% of the Moon is Illuminated
May 7
Waning Gibbous
May 12
Last Quarter
May 20
New
May 28
First Quarter
Jun 4
Full

Hourly Weather History & Observations

Time (CST) Temp. Heat Index Dew Point Humidity Pressure Visibility Wind Dir Wind Speed Gust Speed Precip Events Conditions
12:00 AM 79 °F - 76 °F 88% 29.88 in 12 mi SE 3.5 mph - -  
12:00 AM 78.8 °F - 77.0 °F 94% 29.86 in 6.2 mi SE 3.5 mph - N/A   Mostly Cloudy
3:00 AM 79 °F - 76 °F 88% 29.85 in 12 mi SE 2.3 mph - -   Scattered Clouds
3:00 AM 78.8 °F - 77.0 °F 94% 29.83 in 6.2 mi SE 2.3 mph - N/A   Mostly Cloudy
6:00 AM 78 °F - 74 °F 84% 29.85 in 12 mi ESE 3.5 mph - -  
6:00 AM 78.8 °F - 73.4 °F 83% 29.83 in 6.2 mi ESE 3.5 mph - N/A   Scattered Clouds
7:00 AM 82.4 °F 89.5 °F 75.2 °F 79% 29.86 in 6.2 mi SE 5.8 mph - N/A   Partly Cloudy
8:00 AM 86.0 °F 95.1 °F 75.2 °F 70% 29.86 in 6.2 mi ESE 6.9 mph - N/A   Scattered Clouds
9:00 AM 86 °F - 75 °F 63% 29.88 in 12 mi SE 6.9 mph - -   Partly Cloudy
9:00 AM 86.0 °F 95.1 °F 75.2 °F 70% 29.87 in 6.2 mi SE 6.9 mph - N/A   Scattered Clouds
10:00 AM 86.0 °F 95.1 °F 75.2 °F 70% 29.87 in 6.2 mi SSE 8.1 mph - N/A   Scattered Clouds
11:00 AM 87.8 °F 97.6 °F 75.2 °F 66% 29.86 in 6.2 mi SSE 8.1 mph - N/A   Scattered Clouds
12:00 PM 88 °F - 75 °F 57% 29.85 in 12 mi SE 6.9 mph - -   Partly Cloudy
12:00 PM 87.8 °F 97.6 °F 75.2 °F 66% 29.85 in 6.2 mi SE 6.9 mph - N/A   Scattered Clouds
1:00 PM 89.6 °F 99.8 °F 75.2 °F 62% 29.83 in 6.2 mi SE 6.9 mph - N/A   Scattered Clouds
2:00 PM 86.0 °F 96.9 °F 77.0 °F 74% 29.81 in 6.2 mi East 8.1 mph - N/A   Scattered Clouds
3:00 PM 87 °F - 77 °F 65% 29.81 in 12 mi East 10.4 mph - -   Partly Cloudy
3:00 PM 86.0 °F 96.9 °F 77.0 °F 74% 29.80 in 6.2 mi East 10.4 mph - N/A   Scattered Clouds
4:00 PM 86.0 °F 95.1 °F 75.2 °F 70% 29.79 in 6.2 mi East 8.1 mph - N/A   Partly Cloudy
5:00 PM 86.0 °F 95.1 °F 75.2 °F 70% 29.80 in 6.2 mi East 8.1 mph - N/A   Partly Cloudy
6:00 PM 84 °F - 76 °F 71% 29.81 in 12 mi East 6.9 mph - -  
6:00 PM 84.2 °F 92.3 °F 75.2 °F 74% 29.81 in 6.2 mi East 6.9 mph - N/A   Scattered Clouds
7:00 PM 82.4 °F 89.5 °F 75.2 °F 79% 29.82 in 6.2 mi ESE 3.5 mph - N/A   Scattered Clouds
9:00 PM 80 °F - 76 °F 84% 29.86 in 12 mi ESE 3.5 mph - -   Partly Cloudy
9:00 PM 80.6 °F 86.2 °F 75.2 °F 84% 29.85 in 6.2 mi ESE 3.5 mph - N/A   Scattered Clouds